DLH35X EDDF-EKVG

Flight info

Callsign DLH35X
Flight time N/A
Altitude 34000
Route MARUN6E MARUN Y152 ARPEG Z850 ABILU DCT NORKU DCT RENEQ DCT OSBON/M077F340 DCT ROBUR
Aircraft A321/M-SDE3FGHIRWY/LB1

Departure

Time N/A
Airport Frankfurt Main Airport (EDDF)

Arrival

Time 2026-04-30 14:04
Airport Vágar Airport (EKVG)
Time Latitude Longitude Altitude Speed Heading
2026-04-30 13:38 60.57815 -3.68768 34254 ft 457 kts 12°
2026-04-30 13:39 60.64035 -3.68650 34252 ft 447 kts 336°
2026-04-30 13:39 60.69234 -3.74888 34251 ft 431 kts 306°
2026-04-30 13:40 60.71272 -3.79398 34251 ft 435 kts 304°
2026-04-30 13:40 60.75399 -3.88673 34241 ft 446 kts 305°
2026-04-30 13:41 60.79569 -3.98036 34242 ft 449 kts 305°
2026-04-30 13:41 60.83780 -4.07488 34236 ft 449 kts 305°
2026-04-30 13:42 60.87983 -4.16984 34223 ft 450 kts 304°
2026-04-30 13:42 60.90076 -4.21796 34028 ft 452 kts 303°
2026-04-30 13:42 60.94181 -4.31501 33486 ft 453 kts 303°
2026-04-30 13:43 60.96231 -4.36427 33218 ft 454 kts 303°
2026-04-30 13:43 60.98282 -4.41367 32968 ft 454 kts 302°
2026-04-30 13:43 61.00337 -4.46307 32704 ft 454 kts 303°
2026-04-30 13:43 61.02393 -4.51242 32073 ft 454 kts 303°
2026-04-30 13:44 61.04458 -4.56181 31240 ft 455 kts 303°
2026-04-30 13:44 61.06526 -4.61125 30317 ft 456 kts 303°
2026-04-30 13:44 61.08602 -4.66106 29303 ft 457 kts 303°
2026-04-30 13:44 61.10670 -4.71088 28377 ft 457 kts 303°
2026-04-30 13:45 61.14740 -4.80904 27079 ft 446 kts 303°
2026-04-30 13:45 61.16751 -4.85765 26451 ft 442 kts 303°
2026-04-30 13:45 61.18735 -4.90588 25831 ft 438 kts 302°
2026-04-30 13:46 61.20696 -4.95369 25219 ft 434 kts 302°
2026-04-30 13:46 61.22640 -5.00117 24609 ft 429 kts 302°
2026-04-30 13:46 61.24562 -5.04834 24042 ft 425 kts 301°
2026-04-30 13:46 61.26463 -5.09512 23358 ft 422 kts 301°
2026-04-30 13:47 61.28343 -5.14132 22771 ft 416 kts 301°
2026-04-30 13:47 61.30201 -5.18691 22192 ft 410 kts 301°
2026-04-30 13:47 61.32008 -5.23135 21630 ft 405 kts 301°
2026-04-30 13:47 61.33816 -5.27598 21071 ft 401 kts 301°
2026-04-30 13:48 61.35614 -5.32072 20528 ft 409 kts 301°
2026-04-30 13:48 61.37449 -5.36673 19971 ft 414 kts 301°
2026-04-30 13:48 61.39295 -5.41294 19437 ft 415 kts 301°
2026-04-30 13:48 61.41146 -5.45898 18907 ft 413 kts 301°
2026-04-30 13:49 61.42993 -5.50486 18388 ft 412 kts 301°
2026-04-30 13:49 61.44823 -5.55051 17841 ft 408 kts 301°
2026-04-30 13:49 61.46611 -5.59522 17343 ft 404 kts 301°
2026-04-30 13:49 61.48402 -5.64018 16854 ft 400 kts 301°
2026-04-30 13:50 61.50171 -5.68465 16313 ft 395 kts 301°
2026-04-30 13:50 61.53641 -5.77233 15269 ft 386 kts 301°
2026-04-30 13:50 61.55345 -5.81549 14736 ft 382 kts 302°
2026-04-30 13:51 61.57027 -5.85818 14201 ft 378 kts 302°
2026-04-30 13:51 61.58690 -5.90045 13618 ft 373 kts 302°
2026-04-30 13:51 61.60335 -5.94229 13080 ft 370 kts 302°
2026-04-30 13:51 61.61946 -5.98337 12536 ft 367 kts 302°
2026-04-30 13:52 61.63560 -6.02471 11998 ft 365 kts 302°
2026-04-30 13:52 61.65163 -6.06583 11456 ft 362 kts 302°
2026-04-30 13:52 61.66752 -6.10662 10956 ft 357 kts 302°
2026-04-30 13:52 61.68291 -6.14604 10816 ft 340 kts 302°
2026-04-30 13:53 61.69755 -6.18349 10689 ft 323 kts 302°
2026-04-30 13:53 61.71152 -6.21925 10565 ft 309 kts 301°
2026-04-30 13:53 61.72469 -6.25302 10421 ft 296 kts 301°
2026-04-30 13:53 61.73757 -6.28629 10144 ft 290 kts 301°
2026-04-30 13:54 61.75017 -6.31907 10004 ft 287 kts 301°
2026-04-30 13:54 61.76272 -6.35184 9872 ft 287 kts 301°
2026-04-30 13:54 61.77527 -6.38464 9680 ft 288 kts 300°
2026-04-30 13:54 61.78786 -6.41752 9272 ft 286 kts 300°
2026-04-30 13:55 61.80039 -6.45016 8735 ft 284 kts 301°
2026-04-30 13:55 61.81265 -6.48207 8119 ft 276 kts 301°
2026-04-30 13:55 61.82462 -6.51324 7606 ft 278 kts 301°
2026-04-30 13:55 61.83678 -6.54519 7216 ft 276 kts 301°
2026-04-30 13:56 61.84874 -6.57649 6529 ft 272 kts 301°
2026-04-30 13:56 61.86053 -6.60736 5934 ft 267 kts 301°
2026-04-30 13:56 61.87224 -6.63804 5439 ft 270 kts 301°
2026-04-30 13:56 61.88399 -6.66907 5067 ft 268 kts 301°
2026-04-30 13:57 61.89569 -6.70006 4679 ft 266 kts 302°
2026-04-30 13:57 61.90703 -6.72982 4589 ft 253 kts 301°
2026-04-30 13:57 61.91770 -6.75782 4483 ft 241 kts 301°
2026-04-30 13:57 61.92789 -6.78465 4392 ft 226 kts 301°
2026-04-30 13:58 61.93747 -6.80985 4283 ft 215 kts 300°
2026-04-30 13:58 61.95491 -6.85573 4108 ft 183 kts 299°
2026-04-30 13:58 61.96240 -6.87677 4024 ft 174 kts 292°
2026-04-30 13:59 61.96832 -6.89797 4023 ft 157 kts 288°
2026-04-30 13:59 61.97342 -6.91751 4015 ft 146 kts 287°
2026-04-30 13:59 61.97818 -6.93620 4013 ft 143 kts 286°
2026-04-30 13:59 61.98281 -6.95456 3947 ft 143 kts 286°
2026-04-30 14:00 61.98750 -6.97312 3784 ft 142 kts 286°
2026-04-30 14:00 61.99681 -7.01007 3374 ft 142 kts 286°
2026-04-30 14:00 62.00140 -7.02831 3152 ft 139 kts 286°
2026-04-30 14:01 62.00595 -7.04641 2937 ft 138 kts 287°
2026-04-30 14:01 62.01048 -7.06444 2721 ft 138 kts 287°
2026-04-30 14:01 62.01498 -7.08238 2501 ft 137 kts 287°
2026-04-30 14:01 62.01948 -7.10033 2280 ft 137 kts 287°
2026-04-30 14:02 62.02390 -7.11798 2065 ft 137 kts 287°
2026-04-30 14:02 62.02838 -7.13588 1842 ft 136 kts 288°
2026-04-30 14:02 62.03283 -7.15367 1625 ft 136 kts 288°
2026-04-30 14:02 62.03717 -7.17097 1412 ft 135 kts 290°
2026-04-30 14:03 62.04172 -7.18925 1187 ft 141 kts 289°
2026-04-30 14:03 62.04636 -7.20787 937 ft 146 kts 290°
2026-04-30 14:03 62.05119 -7.22727 702 ft 150 kts 293°
2026-04-30 14:03 62.05604 -7.24685 419 ft 149 kts 291°
2026-04-30 14:04 62.06086 -7.26630 261 ft 142 kts 296°
2026-04-30 14:04 62.06423 -7.27982 284 ft 62 kts 298°
2026-04-30 14:04 62.06528 -7.28397 279 ft 22 kts 298°
2026-04-30 14:04 62.06603 -7.28701 275 ft 25 kts 297°
2026-04-30 14:05 62.06687 -7.29037 271 ft 23 kts 297°
2026-04-30 14:05 62.06734 -7.29181 269 ft 9 kts 304°
2026-04-30 14:05 62.06721 -7.29202 269 ft 2 kts 152°
2026-04-30 14:05 62.06707 -7.29146 269 ft 7 kts 117°
2026-04-30 14:06 62.06676 -7.29015 274 ft 12 kts 117°
2026-04-30 14:06 62.06569 -7.28576 278 ft 21 kts 117°
2026-04-30 14:07 62.06487 -7.28168 281 ft 7 kts 55°
2026-04-30 14:07 62.06541 -7.28110 279 ft 11 kts 23°
2026-04-30 14:07 62.06617 -7.28085 279 ft 7 kts
2026-04-30 14:08 62.06640 -7.27938 282 ft 8 kts 116°
2026-04-30 14:08 62.06636 -7.27911 279 ft 1 kts 95°
2026-04-30 14:08 62.06655 -7.27881 281 ft 3 kts 24°
2026-04-30 14:09 62.06672 -7.27862 279 ft 0 kts 28°
2026-04-30 14:09 62.06673 -7.27860 279 ft 0 kts 28°